Location: Hickory_Viewmont
(35.7830°N, 81.3170°W)
Time: 09:43:14
(UTC-05:00)

Daily predictions for brighter satellites

Satellite Brightness Start Highest point End
(mag) Time Altitude Azimuth Time Altitude Azimuth Time Altitude Azimuth
SKYMED 2 3.9 18:05:02 10° NNE 18:09:13 45° E 18:13:22 10° S
CZ-4 R/B 4.4 18:07:17 10° SSE 18:11:23 73° ENE 18:15:31 10° N
Meteor 1-11 4.3 18:06:37 10° S 18:12:16 75° E 18:18:01 10° NNE
Cosmos 1626 3.1 18:09:33 10° SSE 18:12:44 27° E 18:15:58 10° NNE
Sich 1 4.0 18:12:51 10° SSE 18:16:39 29° E 18:20:27 10° NNE
Cosmos 2219 Rocket 4.0 18:12:48 10° WSW 18:17:39 29° WNW 18:22:32 10° N
CZ-2C R/B 3.4 18:13:54 10° S 18:18:44 53° W 18:23:28 10° NNW
Cosmos 1356 Rocket 3.9 18:16:19 10° SSE 18:19:57 35° E 18:23:37 10° NNE
Lacrosse 5 rocket 1.1 18:17:32 10° NW 18:21:22 84° NE 18:25:24 10° SE
ALOS 3.9 18:21:19 10° E 18:23:26 13° ENE 18:25:34 10° NE
Cosmos 2333 Rocket 3.8 18:19:24 10° SW 18:24:27 33° WNW 18:29:32 10° N
Cosmos 1633 Rocket 3.8 18:23:02 10° SSE 18:26:59 32° E 18:30:54 10° NNE
Cosmos 1726 3.3 18:26:12 10° NNW 18:29:51 48° W 18:33:29 10° SSW
MSX 4.3 18:25:24 10° S 18:31:04 68° WSW 18:36:47 10° NNW
Coronas F rocket 2.4 18:31:20 10° SE 18:33:10 20° E 18:33:36 19° ENE
Cosmos 2278 Rocket 3.0 18:29:28 10° NNW 18:35:02 58° WSW 18:40:34 10° S
Cosmos 1455 2.8 18:34:02 10° NNE 18:37:31 33° E 18:41:00 10° SE
FAST Rocket 4.0 18:34:58 10° S 18:37:32 49° E 18:40:13 10° NNE
USA 229 DEB 3.8 18:33:25 10° SSW 18:40:06 59° ESE 18:46:53 10° NE
USA 229 3.8 18:33:32 10° SSW 18:40:12 59° ESE 18:46:58 10° NE
Timation 1 Rocket 4.3 18:35:25 10° NNW 18:41:27 80° ENE 18:47:27 10° SSE
Cosmos 1703 3.3 18:39:38 10° S 18:43:31 79° W 18:47:25 10° N
Cosmos 1184 Rocket 2.9 18:41:44 10° S 18:45:00 54° E 18:48:16 10° NNE
CZ-4 R/B 4.4 18:43:22 10° SW 18:46:09 19° W 18:48:57 10° NW
SJ-6B 3.4 18:43:55 10° SE 18:47:40 37° ENE 18:51:29 10° N
Iridium 4 Rocket 3.6 18:47:45 10° SSE 18:51:51 35° E 18:55:45 10° NNE
Cosmos 1707 Rocket 3.4 18:51:11 10° N 18:55:32 83° E 18:59:52 10° S
Cosmos 2237 Rocket 4.3 18:51:33 10° WSW 18:56:01 24° WNW 19:00:31 10° N
COSMO-SKYMED 1 3.6 18:53:03 10° N 18:57:13 46° WNW 19:01:22 10° SSW
OTV 4 3.7 18:56:40 10° SW 18:57:23 11° SSW 18:58:07 10° SSW
Cosmos 2369 Rocket 3.9 18:59:01 10° NNE 19:01:00 15° NE 19:01:00 15° NE
Cosmos 1666 Rocket 3.7 18:58:42 10° SSW 19:03:00 73° W 19:07:24 10° N
SL-16 R/B 3.1 18:58:45 10° SW 19:04:10 47° WNW 19:09:38 10° N
H-2A ROCKET BODY 3.8 18:34:26 10° WSW 19:04:49 58° S 19:09:18 20° ESE
FREGAT/IRIS 2.5 19:03:16 10° SSE 19:06:16 59° ENE 19:09:17 10° N
Haruka 4.0 19:03:40 10° WSW 19:07:52 62° S 19:16:07 20° E
Cosmos 923 Rocket 3.9 19:07:38 10° S 19:12:48 73° ESE 19:16:59 16° NNE
Resurs 01 Rocket 2.1 19:08:45 10° SE 19:12:50 37° ENE 19:16:56 10° N
Cosmos 1933 Rocket 3.7 19:10:16 10° SSE 19:14:33 51° E 19:16:31 29° NNE
Cosmos 1680 Rocket 3.4 19:14:07 10° S 19:19:14 62° ESE 19:22:05 27° NNE
Cosmos 1655 Rocket 4.4 19:15:01 10° SSE 19:20:54 40° E 19:24:06 24° NE
TIMED 4.4 19:17:37 10° NNW 19:21:59 69° ENE 19:26:17 10° SSE
Cosmos 1627 Rocket 4.5 19:17:12 10° SSE 19:23:13 56° E 19:29:12 10° NNE
Lacrosse 4 Rocket 1.2 19:21:18 10° NNW 19:25:17 62° ENE 19:25:17 62° ENE
Genesis I 4.3 19:24:19 10° S 19:26:49 31° SSE 19:26:49 31° SSE
FENGYUN 3A 3.5 19:23:52 10° SSE 19:29:08 63° ENE 19:34:28 10° N
Tiangong 1 1.9 19:26:26 10° WSW 19:28:39 46° WSW 19:28:39 46° WSW
METEOR-M 4.5 19:24:09 10° S 19:29:27 66° WSW 19:34:47 10° NNW
NOSS 3-1 (C) 3.4 19:26:22 10° S 19:31:49 51° ESE 19:32:51 45° E
Cosmos 1869 3.4 19:27:49 10° N 19:31:53 77° W 19:35:53 10° S
Intelsat 5-1 Rocket 4.4 19:31:39 10° SSW 19:32:48 11° S 19:33:47 11° SSE
Cosmos 1470 Rocket 3.5 19:31:43 10° S 19:36:04 79° W 19:38:13 29° N
Cosmos 1943 3.2 19:36:29 10° S 19:41:55 55° ESE 19:41:55 55° ESE
USA 215 3.2 19:40:52 44° E 19:42:52 63° NE 19:49:19 10° NW
Cosmos 2242 Rocket 4.5 19:42:43 10° NNW 19:46:59 49° W 19:51:17 10° SSW
Cosmos 2026 Rocket 3.8 19:44:06 10° S 19:50:19 84° E 19:55:59 12° N
ATLAS 5 CENTAUR R/B 4.4 19:46:30 10° N 19:47:22 13° N 19:47:22 13° N
ATLAS 2A CENTAUR R/B 3.8 19:50:32 10° S 19:51:15 14° S 19:51:15 14° S
Cosmos 2112 Rocket 4.2 19:50:35 10° SSW 19:55:45 69° WNW 19:57:11 46° N
ALOS 2.8 19:55:47 10° S 20:00:21 57° W 20:04:57 10° NNW
Meteor 2-20 4.4 20:00:03 10° S 20:06:09 79° W 20:09:18 31° N
Cosmos 2369 Rocket 4.3 20:41:23 10° NNW 20:42:51 19° NNW 20:42:51 19° NNW
Resurs 01 Rocket 4.3 20:49:47 17° W 20:49:47 17° W 20:52:17 10° NW
